This demonstration page uses our WeatherBlox Daily Observations layout. Learn more.

Left ArrowRight Arrow

41.12389, -100.76542

Hourly Observations for January 13, 2019

Temp ( °F °C ) Dew Point ( °F °C ) Humidity (%) Winds ( mph kmh ) Pressure ( in mb ) Visibility ( mi km ) Precip ( " mm )
12:53 am 00:53 Cloudy with Mist and Fog 24 -4.4 23 -5 96 96 Calm 30.42 1030 5 8 0.00 0.00
1:53 am 01:53 Cloudy with Mist and Fog 25 -3.9 24 -4.4 96 96 W 5 7 30.42 1030 3 5 0.00 0.00
2:23 am 02:23 Cloudy with Mist and Fog 25 -3.9 24 -4.4 96 96 W 5 7 30.48 1032 3 4 0.00 0.00
2:36 am 02:36 Cloudy with Mist and Fog 25 -3.9 24 -4.4 96 96 W 5 7 30.48 1032 3 5 0.00 0.00
2:53 am 02:53 Cloudy with Mist and Fog 25 -3.9 24 -4.4 96 96 W 5 7 30.43 1031 3 5 0.00 0.00
3:21 am 03:21 Cloudy with Mist and Fog 26 -3.3 25 -3.9 96 96 WSW 3 6 30.48 1032 3 4 0.00 0.00
3:35 am 03:35 Cloudy with Mist and Fog 26 -3.3 24 -4.4 92 92 WSW 3 6 30.48 1032 3 5 0.00 0.00
3:53 am 03:53 Cloudy 26 -3.3 24 -4.4 92 92 SW 7 11 30.42 1030 9 14 0.00 0.00
4:44 am 04:44 Cloudy 25 -3.9 24 -4.4 96 96 WSW 7 11 30.48 1032 7 11 0.00 0.00
4:53 am 04:53 Cloudy 25 -3.9 24 -4.4 96 96 WSW 6 9 30.43 1031 7 11 0.00 0.00
5:53 am 05:53 Cloudy 25 -3.9 23 -5 92 92 W 7 11 30.43 1030 10 16 0.00 0.00
6:02 am 06:02 Cloudy 25 -3.9 23 -5 92 92 WSW 6 9 30.48 1032 10 16 0.00 0.00
6:53 am 06:53 Cloudy 26 -3.3 23 -5 88 88 WSW 7 11 30.42 1030 7 11 0.00 0.00
7:53 am 07:53 Cloudy 26 -3.3 24 -4.4 92 92 SW 7 11 30.43 1031 8 13 0.00 0.00
8:01 am 08:01 Cloudy 26 -3.3 24 -4.4 92 92 SW 7 11 30.48 1032 8 13 0.00 0.00
8:34 am 08:34 Cloudy with Mist and Fog 27 -2.8 25 -3.9 92 92 SW 7 11 30.48 1032 6 10 0.00 0.00
8:53 am 08:53 Cloudy with Mist and Fog 27 -2.8 25 -3.9 92 92 WSW 7 11 30.43 1031 5 8 0.00 0.00
9:31 am 09:31 Cloudy with Mist and Fog 28 -2.2 26 -3.3 92 92 SW 6 9 30.50 1033 6 10 0.00 0.00
9:53 am 09:53 Cloudy with Mist and Fog 28 -2.2 26 -3.3 92 92 SW 7 11 30.45 1031 6 10 0.00 0.00
10:53 am 10:53 Cloudy 29 -1.7 26 -3.3 89 89 SW 7 11 30.45 1031 7 11 0.00 0.00
11:53 am 11:53 Cloudy 30 -1.1 27 -2.8 88 88 SW 8 13 30.44 1031 8 13 0.00 0.00
12:53 pm 12:53 Cloudy 30 -1.1 27 -2.8 88 88 WSW 12 19 30.41 1030 9 14 0.00 0.00
1:53 pm 13:53 Cloudy 31 -0.6 28 -2.2 89 89 WSW 8 13 30.39 1029 10 16 0.00 0.00
2:53 pm 14:53 Cloudy 32 0 28 -2.2 85 85 WSW 8 13 30.38 1029 10 16 0.00 0.00
3:53 pm 15:53 Cloudy 32 0 29 -1.7 88 88 SW 8 13 30.38 1029 10 16 0.00 0.00
4:53 pm 16:53 Cloudy 32 0 29 -1.7 88 88 SW 8 13 30.37 1029 10 16 0.00 0.00
5:53 pm 17:53 Cloudy 31 -0.6 28 -2.2 89 89 SW 9 15 30.38 1029 10 16 0.00 0.00
6:53 pm 18:53 Cloudy 31 -0.6 28 -2.2 89 89 WSW 8 13 30.38 1029 9 14 0.00 0.00
7:00 pm 19:00 Cloudy 31 -0.6 28 -2.2 89 89 SSW 7 11 30.42 1030 9 14 0.00 0.00
7:53 pm 19:53 Cloudy 30 -1.1 28 -2.2 92 92 SW 8 13 30.39 1029 7 11 0.00 0.00
8:53 pm 20:53 Cloudy with Mist and Fog 29 -1.7 28 -2.2 96 96 SW 8 13 30.38 1029 3 5 0.00 0.00
9:02 pm 21:02 Cloudy with Mist and Fog 29 -1.7 28 -2.2 96 96 SW 7 11 30.42 1030 2 3 0.00 0.00
9:15 pm 21:15 Cloudy with Mist and Fog 29 -1.7 28 -2.2 96 96 W 9 15 30.42 1030 1 2 0.00 0.00
9:53 pm 21:53 Cloudy with Mist and Fog 29 -1.7 28 -2.2 96 96 W 6 9 30.37 1029 1 2 0.00 0.00
10:19 pm 22:19 Mostly Cloudy with Mist and Fog 29 -1.7 28 -2.2 96 96 WSW 7 11 30.42 1030 1 1 0.00 0.00
10:53 pm 22:53 Mostly Cloudy with Mist and Fog 29 -1.7 28 -2.2 96 96 SW 7 11 30.37 1029 1 1 0.00 0.00
11:07 pm 23:07 Cloudy with Mist and Fog 29 -1.7 27 -2.8 92 92 W 8 13 30.42 1030 2 2 0.00 0.00
11:20 pm 23:20 Cloudy with Mist and Fog 29 -1.7 27 -2.8 92 92 W 9 15 30.42 1030 1 1 0.00 0.00
11:30 pm 23:30 Cloudy with Mist and Fog 29 -1.7 28 -2.2 96 96 WSW 8 13 30.42 1030 1 2 0.00 0.00
11:53 pm 23:53 Cloudy with Mist and Fog 29 -1.7 28 -2.2 96 96 WSW 7 11 30.37 1029 1 2 0.00 0.00

Powered by AerisWeather